Regional Weather Roundup
Issued by NWS

Home | Current Version | Previous Version | Text Only | Print | Product List | Glossary Off
Versions: 1 2 3 4 5 6 7 8 9 10 11 12 13 14 15 16 17 18 19 20 21 22 23 24 25 26 27 28 29 30 31 32 33 34 35 36 37 38 39 40 41 42 43 44 45 46 47 48 49 50

000
ASUS43 KLOT 032308
RWRIL

ILLINOIS REGIONAL WEATHER ROUNDUP
NATIONAL WEATHER SERVICE CHICAGO/ROMEOVILLE IL
600 PM CDT THU SEP 03 2015

NOTE: "FAIR" INDICATES FEW OR NO CLOUDS BELOW 12,000 FEET WITH NO
SIGNIFICANT WEATHER AND/OR OBSTRUCTIONS TO VISIBILITY.

* THESE STATIONS ARE NOT UNDER NWS QUALITY CONTROL. THEY ALSO MAY NOT
  REPORT WEATHER SUCH AS PRECIPITATION OR FOG.

ILZ001-002-007-009-015-016-024-040000-
NORTHWEST ILLINOIS

CITY           SKY/WX    TMP DP  RH WIND       PRES   REMARKS
MOLINE         SUNNY     90  69  50 SW7       29.88S HX  94
STERLING*      MOSUNNY  N/A N/A N/A W3        29.87S
SAVANNA*       SUNNY     90  69  51 CALM      29.88S HX  94
$$

ILZ003-004-008-010-011-017-018-040000-
NORTH CENTRAL ILLINOIS

CITY           SKY/WX    TMP DP  RH WIND       PRES   REMARKS
ROCKFORD       MOSUNNY   88  72  58 W8        29.90S HX  94
FREEPORT*      SUNNY     86  73  65 SW6       29.91F HX  92
ROCHELLE*      SUNNY     86  74  67 CALM      29.90S HX  94
DE KALB*       SUNNY     86  72  62 W8        29.91S HX  93
PERU*          SUNNY     89  63  41 W7        29.90S HX  90
$$

ILZ005-006-012>014-019>023-040000-
NORTHEAST ILLINOIS

CITY           SKY/WX    TMP DP  RH WIND       PRES   REMARKS
CHICAGO-OHARE  PTSUNNY   89  70  53 W13       29.88R HX  94
CHICAGO-MIDWAY PTSUNNY   91  68  46 W10       29.88R HX  95
AURORA         SUNNY     88  72  58 SW6       29.90S HX  94
LANSING*       MOSUNNY   88  67  49 W9        29.89S HX  90
JOLIET*        MOSUNNY   90  70  50 W5        29.89S HX  95
WAUKEGAN       SUNNY     72  68  87 NE12G20   29.90R
DUPAGE AIRPORT SUNNY     87  71  58 SW10      29.89S HX  93
KANKAKEE*      SUNNY     90  70  51 W6        29.91S HX  94
WHEELING       MOSUNNY   89  70  53 W10       29.89R HX  94
MORRIS*        MOSUNNY   87  70  56 W5        29.89S HX  92
ROMEOVILLE*    SUNNY     87  67  50 W9        29.89S HX  90
NORTHERLY ISL    N/A     89  65  44 W10         N/A  HX  91
$$

LMZ740>746-040000-
SOUTHERN LAKE MICHIGAN

STATION/POSITION SKY/WX   TEMP    WIND        PRES    VSBY  WAVE
                          AIR SEA DIR/SP/G                  HT/PER
                          (F)     (DEG/KT/KT) (MB)    (MI)  (FT/S)
SOUTHERN BUOY              71 71   10/ 12/ 14 1012.1R
WILMETTE HARBOR            76 65  160/ 14/ 21   N/A           0
HARRISON CRIB              87     250/ 14/ 19   N/A
BURNHAM HARBOR             89     260/  7/ 15   N/A
CALUMET HARBOR             90     240/  5/ 12   N/A
BURNS HARBOR               83     250/  8/ 12 1012.2S
MICHIGAN CITY              82     220/  7/  7   N/A
MICHIGAN CITY 6N           80 76  250/  4/  6   N/A           0
ST. JOSEPH                 77 74  270/  4/  4   N/A           1
$$

ILZ025>027-034>036-040-047-049-050-058-095>099-040000-
WEST-CENTRAL ILLINOIS

CITY           SKY/WX    TMP DP  RH WIND       PRES   REMARKS
QUINCY         SUNNY     91  66  43 W6        29.90F HX  93
GALESBURG*     SUNNY     89  69  51 SW5       29.90S HX  93
MACOMB*        SUNNY     91  65  42 SW5       29.92S HX  93
JACKSONVILLE*  SUNNY     92  66  41 SW6       29.90F HX  94
PITTSFIELD*    SUNNY     91  65  42 S3        29.92S HX  94
$$

ILZ028>032-037-038-041>044-048-051>054-059>061-040000-
CENTRAL ILLINOIS

CITY           SKY/WX    TMP DP  RH WIND       PRES   REMARKS
PONTIAC        SUNNY     89  71  53 W6        29.91S HX  95
BLOOMINGTON    SUNNY     91  67  45 W7        29.93S HX  94
DECATUR        SUNNY     91  66  43 SW10      29.91F HX  93
PEORIA         SUNNY     92  64  39 SW8       29.90S HX  93
LACON*         SUNNY     89  67  47 SW5       29.89S HX  92
LINCOLN*       MOSUNNY   93  63  36 CALM      29.89S HX  94
SPRINGFIELD    SUNNY     92  65  40 SW9       29.91S HX  94
TAYLORVILLE    SUNNY     88  66  48 SW5       29.92S HX  90
$$

ILZ033-039-045-046-055>057-062-063-040000-
EAST-CENTRAL ILLINOIS

CITY           SKY/WX    TMP DP  RH WIND       PRES   REMARKS
CHAMPAIGN      MOSUNNY   89  68  49 CALM      29.92F HX  93
MATTOON        SUNNY     88  64  44 VRB6      29.92F HX  89
PARIS*         SUNNY     88  68  51 SW8       29.93S HX  92
$$

ILZ079-100>102-040000-
SOUTHWEST ILLINOIS

CITY           SKY/WX    TMP DP  RH WIND       PRES   REMARKS
ALTON          MOSUNNY   88  68  51 SW6       29.92F HX  91
BELLEVILLE     SUNNY     90  70  52 SE2       29.91F HX  96
CAHOKIA*       SUNNY     90  68  48 S6        29.91F HX  94
SPARTA*        SUNNY     89  70  54 CALM      29.94S HX  94
$$

ILZ064>066-069>071-074>076-080>082-084>086-088>090-092>094-040000-
SOUTH-CENTRAL ILLINOIS

CITY           SKY/WX    TMP DP  RH WIND       PRES   REMARKS
CARBONDALE     SUNNY     87  67  51 SW7       29.93F HX  90
CAIRO*         SUNNY     87  73  62 SE3       29.92F HX  95
EFFINGHAM*     SUNNY     89  60  36 SW5       29.94F HX  88
MARION         MOSUNNY   90  68  48 SW7       29.95S HX  93
MT. VERNON     SUNNY     90  66  45 S7        29.94S HX  92
CENTRALIA*     SUNNY     90  71  54 SW5       29.92F HX  96
SALEM*         SUNNY     90  67  47 CALM      29.93S HX  93
METROPOLIS*    MOSUNNY   90  73  57 CALM      29.94S HX  98
$$

ILZ067-068-072-073-078-083-087-091-040000-
SOUTHEAST ILLINOIS

CITY           SKY/WX    TMP DP  RH WIND       PRES   REMARKS
LAWRENCEVILLE  MOSUNNY   90  65  43 SW3       29.93S HX  92
FLORA*         SUNNY     90  65  43 SW5       29.93F HX  91
FAIRFIELD*     SUNNY     88  68  52 CALM      29.92S HX  91
HARRISBURG*    SUNNY     90  67  47 SW8       29.93F HX  93
ROBINSON*      PTSUNNY   89  66  45 S3        29.93F HX  92
CARMI*         SUNNY     89  70  54 CALM      29.92F HX  94
$$

ABBREVIATIONS USED IN REMARKS
   TC - TEMPERATURE IN CELSIUS
  WCI - WIND CHILL INDEX
   HX - HEAT INDEX
  VSB - VISIBILITY
$$




USA.gov is the U.S. government's official web portal to all federal, state and local government web resources and services.